Location: Volkssternwarte_EN
(51.3230°N, 7.4010°E)
Time: 18:54:48
(UTC+02:00)

N. Korean satellite - Pass Details

Date: 29 September 2021
Orbit: 450 x 495 km, 97.3° (Epoch: 17 October)

Event Time Altitude Azimuth Distance (km) Brightness Sun altitude
Rises 06:44:37 0° 16° (NNE) 2,536 10.5 -7.6°
Reaches altitude 10° 06:46:42 10° 19° (NNE) 1,661 9.6 -7.3°
Maximum altitude 06:50:14 61° 101° (E) 552 7.2 -6.7°
Drops below altitude 10° 06:53:48 10° 183° (S) 1,671 9.2 -6.2°
Sets 06:55:53 0° 187° (S) 2,553 10.1 -5.8°
